Погода в Локачах

Украина / Волынская область     50°44′20″N   24°38′53″E
темп.,
°C
ветер,
м/с
пор.,
м/с
влажн.,
%
обл.,
%
осадки,
мм/ч
давл.,
гПа
погр.,
м
23 октября, сб
сб2300:00+8зюз715503 0.0 1012872
03:00+8з814505 0.0 1013994
06:00+7з8136199 0.0 10141196
09:00+7з712685 0.0 10161117
12:00+7з81261100 0.0 10191398
15:00+8з8125499 0.0 10191640
18:00+7з7116316 0.0 10211035
21:00+4з5117331 0.0 1022319
24 октября, вс
вс2400:00+4з512795 0.0 1024423
03:00+3зсз5118926 0.0 1026335
06:00+2зсз5119381 0.0 1027306
09:00+3зсз497969 0.0 1029428
12:00+7сз575722 0.0 10311263
15:00+8сз564882 0.1 10311589
18:00+5сз335761 0.0 103237
21:00+3сз226680 0.0 103210
25 октября, пн
пн2500:00+2зюз117085 0.0 103310
03:00+2ююз227444 0.0 103310
06:00+1ю228036 0.0 103320
09:00+1ююв35775 0.0 103393
12:00+8ююв57495 0.0 1032560
15:00+11ююв57375 0.0 1030828
18:00+7ююв47495 0.0 1029116
21:00+5ююв4125737 0.0 1028207
26 октября, вт
вт2600:00+4ююв412595 0.0 1028214
03:00+3ю49635 0.0 1028162
06:00+2ю48667 0.0 1026123
09:00+2ю35655 0.0 1026109
12:00+9ю22414 0.0 1025334
15:00+12ююв2234100 0.0 1023631
18:00+8ююз2246100 0.0 102310
21:00+6юз2251100 0.0 102315
27 октября, ср
ср2700:00+6зюз3352100 0.0 102336
03:00+5зсз22639 0.0 102327
06:00+3з337363 0.0 102325
09:00+3з367815 0.0 1025116
12:00+10зсз455444 0.0 1024450
15:00+13зсз46508 0.0 1024910
18:00+9зсз33735 0.0 102541
21:00+7зсз34885 0.0 102647